FENGYUN 1C DEB, 31815

Orbit data source: Space-Track

FENGYUN 1C DEB, 31815 is space debris in SSO originally from a launch on Mon, 10 May 1999 UTC launched from the Taiyaun Space Center, China (TSC). Fengyun 1C debris stems from the Chinese weather satellite Fengyun-1C, which was intentionally destroyed by a Chinese anti-satellite missile in 2007. This event dramatically increased the amount of space debris, with thousands of trackable fragments posing hazards to satellites and human spaceflight. The Fengyun 1C debris cloud has become a focal point in discussions about space sustainability and the need for international regulations to prevent the creation of new debris.

Loading next visibility...
Identifier
31815, 1999-025CHD
Orbit
SSO
Country
Flag of CNCN / PRC
Related business
Manufacturer
Unknown
Mission
Spacecraft
Bus & Motor
Unknown
Mass
Unknown
Launch date (UTC)
1999-05-10 (27 years ago)
Launch vehicle
Unknown
Launch site
Taiyaun Space Center, China (TSC)
Object type
Payload
Rocket body
Debris
Shape & HBR
Unknown shape, 0.1 m
Radar Cross Section
Small (<0.1 m²)

Expand to show TLE details & history
Last TLE update: 12 hours ago

TLE from 12 hours ago
0 FENGYUN 1C DEB
1 31815U 99025CHD 25352.78327904 -.00000005  00000-0  21401-4 0  9998
2 31815  98.7685 338.9580 0058938   5.1660 355.0107 14.10282196956241
Epoch: 2025-12-18T18:47Z
TLE epoch observation values (Epoch: 2025-12-18T18:47:55.309Z)
Latitude
0.00003°
Longitude
-30.65629°
Altitude
818.81 km
Speed
7.466 km/s
True Right ascension
22h 35m 49s
True Declination
0° 00' 00"
Sunlit
Object was in daylight at epoch
Visualization orbit readout
Latitude
Unknown
Longitude
Unknown
Altitude
Unknown
Speed
Unknown
Apparent Right ascension
Unknown
Apparent Declination
Unknown
Sunlit
N/A
Visualization observer readout
Local Sidereal Time
05:13:45
Azimuth
Unknown
Elevation
Unknown
Doppler factor
Unknown
Orbital elements
Apogee altitude
898.215 km
Perigee altitude
812.946 km
Semi-major axis
7,233.717 km
Eccentricity
0.00589
Inclination
98.7685°
RAAN
338.958°
Arg. of periapsis
5.166°
True anomaly
354.95153°
Mean anomaly
355.0107°
Eccentric anomaly
354.98116°
Mean motion
3.52777 °/min
Orbital period
102.05 mins
BSTAR
0.000021401
Loading maneuver chart data...
Computing Atmospheric mass density...

Documentation

Showing up to 5 results
|